Погода в Петровом

Россия / Ивановская область     57°04′56″N   42°56′24″E
темп.,
°C
ветер,
м/с
пор.,
м/с
влажн.,
%
обл.,
%
осадки,
мм/ч
давл.,
гПа
погр.,
м
17 апреля, сб
сб1700:00+4всв411885 0.0 1027238
03:00+3всв511885 0.0 1028214
06:00+2всв410845 0.0 1028237
09:00+6всв69645 0.0 1028406
12:00+9всв68504 0.0 1027702
15:00+10всв68465 0.0 1026778
18:00+8всв59600 0.0 1026257
21:00+5св412740 0.0 1026188
18 апреля, вс
вс1800:00+3всв410800 0.0 1026179
03:00+2всв410840 0.0 1026167
06:00+2всв411870 0.0 1026214
09:00+6всв610670 0.0 1026496
12:00+10всв68504 0.0 10251117
15:00+11всв685020 0.0 10251197
18:00+9всв5106289 0.0 1026387
21:00+5всв6127946 0.0 1027401
19 апреля, пн
пн1900:00+3всв51078100 0.0 1028365
03:00+3всв5974100 0.0 1029309
06:00+2всв51068100 0.0 1029435
09:00+4в796086 0.0 1030561
12:00+6в795490 0.0 10301011
15:00+7в794146 0.0 10291238
18:00+6в611475 0.0 1029655
21:00+3в612541 0.0 1030307
20 апреля, вт
вт2000:00+1в613600 0.0 1030320
03:000в61264100 0.0 1029332
06:000в6146566 0.0 1029437
09:00+4вюв712579 0.0 1028658
12:00+8вюв8115162 0.0 10261045
15:00+9вюв812486 0.0 10241219
18:00+8вюв81455100 0.0 1023965
21:00+6вюв91657100 0.0 1021760
21 апреля, ср
ср2100:00+6вюв101862100 0.0 1018792
03:00+5вюв101970100 0.3 1015717
06:00+4вюв102088100 3.4 1013823
09:00+4юв111993100 7.1 1012859
12:00+5юв111990100 1.1 1012873
15:00+6юв101792100 1.9 1012820
18:00+7ю8149189 0.8 1013680
21:00+6ю61384100 1.0 1016597